Weather History for Aurora, NE

Change the Weather History Date:

Tuesday, December 18, 2012

  Actual Average Record
Temperature  
Mean Temperature 40 °F -  
Max Temperature 50 °F 36 °F 69 °F (1980)
Min Temperature 29 °F 16 °F -13 °F (1983)
Degree Days  
Heating Degree Days 26    
Moisture  
Dew Point 29 °F    
Average Humidity 68    
Maximum Humidity 91    
Minimum Humidity 43    
Precipitation  
Precipitation 0.00 in - - ()
Sea Level Pressure  
Sea Level Pressure 29.66 in    
Wind  
Wind Speed 10 mph (WNW)    
Max Wind Speed 21 mph    
Max Gust Speed 29 mph    
Visibility 10 miles    
Events      
Averages and records for this station are not official NWS values.
T = Trace of Precipitation, MM = Missing Value Source: NWS Daily Summary

Daily Weather History Graph

Daily Weather History Graph

Search for Another Location

Airport:

Trip Planner

Search our weather history database for the weather conditions in past years. The results will help you decide how hot, cold, wet, or windy it might be!

Date:

Astronomy

Dec. 18, 2012 Rise Set
Actual Time 7:51 AM CST 5:06 PM CST
Civil Twilight 7:20 AM CST 5:37 PM CST
Nautical Twilight 6:46 AM CST 6:11 PM CST
Astronomical Twilight 6:12 AM CST 6:45 PM CST
Moon 11:30 AM CST (12/18) 11:36 PM CST (12/18)
Length of Visible Light 10h 16m
Length of Day
9h 14m
Waxing Crescent, 35% of the Moon is Illuminated
Dec 18
Waxing Crescent
Dec 19
First Quarter
Dec 28
Full
Jan 4
Last Quarter
Jan 11
New

Hourly Weather History & Observations

Time (CST) Temp. Windchill Dew Point Humidity Pressure Visibility Wind Dir Wind Speed Gust Speed Precip Events Conditions
12:15 AM 29.8 °F 23.0 °F 27.5 °F 91% 29.48 in 10.0 mi SE 6.9 mph - N/A   Clear
12:35 AM 30.4 °F 24.5 °F 27.7 °F 90% 29.47 in 10.0 mi South 5.8 mph - N/A   Clear
12:55 AM 31.6 °F 26.0 °F 28.0 °F 87% 29.48 in 10.0 mi SSW 5.8 mph - N/A   Clear
1:15 AM 31.8 °F 25.4 °F 28.0 °F 86% 29.48 in 10.0 mi SSW 6.9 mph - N/A   Clear
1:35 AM 31.1 °F 23.1 °F 27.7 °F 87% 29.48 in 10.0 mi SW 9.2 mph - N/A   Clear
1:55 AM 31.1 °F 23.1 °F 27.9 °F 88% 29.47 in 10.0 mi SW 9.2 mph - N/A   Clear
2:15 AM 32.0 °F 23.6 °F 28.0 °F 85% 29.48 in 10.0 mi WSW 10.4 mph - N/A   Clear
2:35 AM 32.0 °F 23.0 °F 28.0 °F 85% 29.48 in 10.0 mi WSW 11.5 mph - N/A   Clear
2:55 AM 32.9 °F 24.1 °F 28.6 °F 84% 29.48 in 10.0 mi West 11.5 mph - N/A   Clear
3:15 AM 35.8 °F 26.9 °F 29.3 °F 77% 29.48 in 10.0 mi West 13.8 mph - N/A   Clear
3:35 AM 36.1 °F 27.3 °F 29.3 °F 76% 29.48 in 10.0 mi West 13.8 mph - N/A   Clear
3:55 AM 36.3 °F 28.0 °F 29.3 °F 76% 29.48 in 10.0 mi West 12.7 mph - N/A   Clear
4:15 AM 36.9 °F 30.1 °F 29.3 °F 74% 29.48 in 10.0 mi West 9.2 mph - N/A   Clear
4:35 AM 37.9 °F 29.6 °F 29.1 °F 71% 29.49 in 10.0 mi West 13.8 mph - N/A   Clear
4:55 AM 39.2 °F 29.8 °F 29.1 °F 67% 29.50 in 10.0 mi West 18.4 mph - N/A   Clear
5:15 AM 39.2 °F 30.2 °F 28.8 °F 66% 29.51 in 10.0 mi West 17.3 mph - N/A   Clear
5:35 AM 37.6 °F 27.7 °F 28.6 °F 70% 29.52 in 10.0 mi West 18.4 mph - N/A   Clear
5:55 AM 37.6 °F 28.1 °F 28.4 °F 69% 29.53 in 10.0 mi West 17.3 mph - N/A   Clear
6:15 AM 37.4 °F 28.2 °F 28.2 °F 69% 29.53 in 10.0 mi West 16.1 mph - N/A   Clear
6:35 AM 37.4 °F 28.9 °F 28.0 °F 69% 29.54 in 10.0 mi West 13.8 mph - N/A   Clear
6:55 AM 37.4 °F 29.3 °F 27.9 °F 68% 29.56 in 10.0 mi West 12.7 mph - N/A   Clear
7:15 AM 36.9 °F 27.8 °F 28.2 °F 71% 29.57 in 10.0 mi West 15.0 mph - N/A   Clear
7:35 AM 36.7 °F 28.0 °F 28.4 °F 72% 29.58 in 10.0 mi WNW 13.8 mph - N/A   Clear
7:55 AM 36.7 °F 27.6 °F 29.3 °F 75% 29.59 in 10.0 mi WNW 15.0 mph - N/A   Clear
8:15 AM 37.4 °F 28.9 °F 30.2 °F 75% 29.60 in 10.0 mi WNW 13.8 mph - N/A   Clear
8:35 AM 37.4 °F 28.9 °F 30.6 °F 76% 29.62 in 10.0 mi WNW 13.8 mph - N/A   Clear
8:55 AM 37.8 °F 29.4 °F 30.9 °F 76% 29.64 in 10.0 mi WNW 13.8 mph - N/A   Clear
9:15 AM 38.8 °F 30.4 °F 31.1 °F 74% 29.65 in 10.0 mi WNW 15.0 mph 19.6 mph N/A   Clear
9:35 AM 40.1 °F 32.0 °F 31.3 °F 71% 29.65 in 10.0 mi WNW 15.0 mph - N/A   Clear
9:55 AM 40.8 °F 32.9 °F 31.8 °F 70% 29.66 in 10.0 mi WNW 15.0 mph 20.7 mph N/A   Clear
10:15 AM 41.9 °F 35.0 °F 32.0 °F 68% 29.67 in 10.0 mi WNW 12.7 mph - N/A   Clear
10:35 AM 42.8 °F 36.2 °F 32.0 °F 66% 29.68 in 10.0 mi NW 12.7 mph - N/A   Clear
10:55 AM 44.1 °F 37.4 °F 32.0 °F 63% 29.68 in 10.0 mi NW 13.8 mph - N/A   Clear
11:15 AM 45.5 °F 38.9 °F 32.5 °F 61% 29.69 in 10.0 mi NW 15.0 mph - N/A   Clear
11:35 AM 46.0 °F 39.0 °F 32.4 °F 59% 29.69 in 10.0 mi NW 17.3 mph 24.2 mph N/A   Clear
11:55 AM 46.8 °F - 32.7 °F 58% 29.69 in 10.0 mi NW 15.0 mph - N/A   Clear
12:15 PM 48.2 °F - 32.2 °F 54% 29.69 in 10.0 mi NW 16.1 mph 25.3 mph N/A   Clear
12:35 PM 48.6 °F - 31.5 °F 52% 29.69 in 10.0 mi NNW 19.6 mph 28.8 mph N/A   Clear
12:55 PM 49.1 °F - 30.9 °F 50% 29.69 in 10.0 mi NW 20.7 mph 28.8 mph N/A   Clear
1:15 PM 49.1 °F - 28.0 °F 44% 29.68 in 10.0 mi NNW 17.3 mph 28.8 mph N/A   Clear
1:35 PM 49.5 °F - 29.5 °F 46% 29.69 in 10.0 mi NNW 17.3 mph 24.2 mph N/A   Clear
1:55 PM 49.6 °F - 29.1 °F 45% 29.69 in 10.0 mi NNW 16.1 mph 24.2 mph N/A   Clear
2:15 PM 50.2 °F - 30.6 °F 47% 29.71 in 10.0 mi NNW 16.1 mph 19.6 mph N/A   Clear
2:35 PM 50.4 °F - 28.6 °F 43% 29.71 in 10.0 mi NW 17.3 mph 20.7 mph N/A   Clear
2:55 PM 50.4 °F - 29.1 °F 44% 29.71 in 10.0 mi NW 15.0 mph - N/A   Clear
3:15 PM 50.4 °F - 28.8 °F 43% 29.72 in 10.0 mi NW 9.2 mph - N/A   Clear
3:35 PM 49.5 °F - 29.8 °F 47% 29.73 in 10.0 mi NNW 6.9 mph - N/A   Clear
3:55 PM 48.4 °F - 29.3 °F 48% 29.74 in 10.0 mi WNW 3.5 mph - N/A   Clear
4:15 PM 47.7 °F - 26.8 °F 44% 29.74 in 10.0 mi Calm Calm - N/A   Scattered Clouds
4:35 PM 46.9 °F - 27.1 °F 46% 29.75 in 10.0 mi Calm Calm - N/A   Scattered Clouds
4:55 PM 44.8 °F - 27.7 °F 51% 29.76 in 10.0 mi Calm Calm - N/A   Scattered Clouds
5:15 PM 43.2 °F - 27.7 °F 54% 29.77 in 10.0 mi Calm Calm - N/A   Mostly Cloudy
5:35 PM 43.7 °F - 26.8 °F 51% 29.77 in 10.0 mi Calm Calm - N/A   Mostly Cloudy
5:55 PM 41.9 °F - 26.4 °F 54% 29.79 in 10.0 mi Calm Calm - N/A   Scattered Clouds
6:15 PM 41.0 °F - 27.0 °F 57% 29.79 in 10.0 mi Calm Calm - N/A   Clear
6:35 PM 37.2 °F - 27.5 °F 68% 29.79 in 10.0 mi Calm Calm - N/A   Clear
6:55 PM 38.7 °F 35.2 °F 27.1 °F 63% 29.79 in 10.0 mi NE 4.6 mph - N/A   Scattered Clouds
7:15 PM 37.8 °F 34.2 °F 27.0 °F 65% 29.79 in 10.0 mi NE 4.6 mph - N/A   Mostly Cloudy
7:35 PM 34.7 °F 30.6 °F 28.0 °F 77% 29.79 in 10.0 mi NE 4.6 mph - N/A   Mostly Cloudy
7:55 PM 35.8 °F - 25.7 °F 67% 29.79 in 10.0 mi Calm Calm - N/A   Scattered Clouds
8:15 PM 35.6 °F 31.7 °F 26.4 °F 69% 29.79 in 10.0 mi ESE 4.6 mph - N/A   Clear
8:35 PM 35.2 °F 32.4 °F 26.6 °F 71% 29.79 in 10.0 mi ESE 3.5 mph - N/A   Clear
8:55 PM 34.3 °F 31.4 °F 26.6 °F 73% 29.79 in 10.0 mi ESE 3.5 mph - N/A   Clear
9:15 PM 34.2 °F 30.0 °F 26.6 °F 74% 29.79 in 10.0 mi East 4.6 mph - N/A   Clear
9:35 PM 33.3 °F 28.9 °F 27.0 °F 78% 29.79 in 10.0 mi East 4.6 mph - N/A   Clear
9:55 PM 33.8 °F - 27.0 °F 76% 29.81 in 10.0 mi Calm Calm - N/A   Scattered Clouds
10:15 PM 32.4 °F 26.0 °F 26.6 °F 79% 29.80 in 10.0 mi East 6.9 mph - N/A   Clear
10:35 PM 33.3 °F 27.1 °F 27.9 °F 81% 29.80 in 10.0 mi East 6.9 mph - N/A   Clear
10:55 PM 33.1 °F 27.7 °F 27.9 °F 81% 29.81 in 10.0 mi East 5.8 mph - N/A   Clear
11:15 PM 32.0 °F 25.6 °F 28.0 °F 85% 29.81 in 10.0 mi East 6.9 mph - N/A   Clear
11:35 PM 32.5 °F 26.2 °F 28.6 °F 85% 29.81 in 10.0 mi East 6.9 mph - N/A   Clear
11:55 PM 32.4 °F 26.0 °F 29.1 °F 88% 29.81 in 10.0 mi SE 6.9 mph - N/A   Clear